Weather in Tatarino

Russia / Voronezh Oblast     50°35′13″N   39°07′22″E
temp.,
°C
wind,
m/s
gust,
m/s
humid.,
%
clouds,
%
prec.,
mm/h
press.,
hPa
HPBL,
m
7 march, sun
sun700:00−4nw58600 0.0 1021882
03:00−4wnw47661 0.0 10211008
06:00−4wsw367766 0.0 1020520
09:00−3wsw6106857 0.0 1018865
12:00−1wsw8124755 0.0 10171246
15:00+1sw10153877 0.0 10131264
18:000sw9175197 0.0 10101345
21:00−1wsw10178098 0.0 10081262
8 march, mon
mon800:00−1wsw101590100 0.3 10081032
03:00−1wsw8139099 0.4 1007879
06:00−1wsw71295100 0.6 1007775
09:000wsw9138199 0.8 1006880
12:00+1wsw81283100 0.2 10071030
15:00+2w71068100 0.8 10071376
18:00−1wnw5106997 0.2 1008601
21:00−3nw387850 0.2 1009601
9 march, tue
tue900:00−3wnw477414 0.0 1010706
03:00−3wnw477956 0.1 1011650
06:00−5wnw478381 0.0 1013575
09:00−5nw567887 0.1 1014665
12:00−4nw5660100 0.1 10151171
15:00−3nw5660100 0.1 10161131
18:00−5nw5771100 0.1 1017900
21:00−6nnw577199 0.3 1020943
10 march, wed
wed1000:00−8nnw4671100 0.0 1021773
03:00−9nw4674100 0.1 1022676
06:00−10nnw477326 0.0 1024536
09:00−9nnw466613 0.0 1025564
12:00−7nnw45480 0.0 1026831
15:00−6n44446 0.0 1026979
18:00−7n345097 0.0 1026734
21:00−8nne335594 0.0 1027503
11 march, thu
thu1100:00−9ne345781 0.0 1028438
03:00−10e337078 0.0 1029331
06:00−11e336918 0.0 1029250
09:00−10se335635 0.0 1030391
12:00−7sse224451 0.0 1030711
15:00−4sse334039 0.0 1029978
18:00−4sse34430 0.0 1029840
21:00−5sse48470 0.0 1029416